Regional Weather Roundup
Issued by NWS Binghamton, NY

Home | Current Version | Previous Version | Text Only | Print | Product List | Glossary On
Versions: 1 2 3 4 5 6 7 8 9 10 11 12 13 14 15 16 17 18 19 20 21 22 23 24 25 26 27 28 29 30 31 32 33 34 35 36 37 38 39 40 41 42 43 44 45 46 47 48 49 50
000
ASUS41 KBGM 270510
RWRBGM

REGIONAL WEATHER ROUNDUP
NATIONAL WEATHER SERVICE BINGHAMTON NY
100 AM EDT FRI MAY 27 2016

Note: "fair" indicates few or no clouds below 12,000 feet with no
significant weather and/or obstructions to visibility.

* = Station(s) that does not report precipitation, such as rain,
snow, etc, also no thunder or fog.

NYZ009-015>018-022>025-036-037-044>046-055>057-062-270600
...Central New York...

CITY           SKY/WX    TMP DP  RH WIND       PRES   REMARKS
Binghamton     CLOUDY    70  56  61 S6        30.06F
Cortland       FAIR      63  59  88 CALM      30.04S
Dansville      CLOUDY    66  64  93 SE7       30.02R
Elmira         CLEAR     64  58  80 CALM      30.02S
Ithaca         CLOUDY    68  58  70 S8        30.03S
Hamilton       PTCLDY    64  57  77 CALM      30.04S
Hornell        MOCLDY    63  63 100 E5        30.07R FOG
Monticello     CLOUDY    66  57  72 CALM      30.10S
Oneonta        CLEAR     70  54  56 CALM      30.08S
Penn Yan       CLOUDY    67  61  81 SW8       30.01S
Rome           CLOUDY    68  60  75 CALM      30.01S
Sidney         CLOUDY    63  63 100 CALM      30.06R
Syracuse       MOCLDY    67  60  78 CALM      29.97F
$$

PAZ038>040-043-044-047-048-072-270600
...Northeast Pennsylvania...

CITY           SKY/WX    TMP DP  RH WIND       PRES   REMARKS
Hazleton       PTCLDY    72  61  68 S3        30.12S
Scranton       PTCLDY    73  59  61 NE3       30.05R
$$
&&
KEY
WCI = Wind Chill Index
VSB = Visibility
HX  = Heat Index
$$



USA.gov is the U.S. government's official web portal to all federal, state and local government web resources and services.